Starlink 11258

operational
NORAD ID: 62598 Int'l Des: 2025-008 Owner: SPXS Country: US Constellation: starlink
LEOCIRCULAR

About Starlink 11258

Description loading...

Live Position

Loading 3D Globe...

Upcoming Passes

Altitude History

Altitude vs Time

uPlot chart will show altitude changes over time

Two-Line Element Set

1 62598U 25008M 26046.93408910 .00238688 00000-0 18075-2 0 9995
2 62598 42.9979 257.2066 0001500 277.9213 82.1485 15.70882157 63862
Epoch: Feb 15, 2026 • Age: 10 hours

Current Status

Altitude 363.8 km
Velocity 7.69 km/s
Sub-Earth Point -31.73°S, 158.67°W
Launch Date Jan 13, 2025
Age 1 years
Type internet

Technical Details

Classification Payload
Mass 960.00 kg
Dry Mass 910.00 kg
Total Mass 960.00 kg
Length 0.30 m
Diameter 4.10 m
Span 29.00 m
Shape Box + pan
Manufacturer SPXS
Bus Type Starlink V2MD
Phase Status In Orbit
Owner/State SPXS/US

Large Constellations

Loading constellations...